Location: De Har
(53.3413°N, 6.6858°E)
Time: 08:37:28
(UTC+00:00)

Cosmos 2221 - Pass Details

Date: 22 April 2026
Orbit: 569 x 587 km, 82.5° (Epoch: 15 May)

Event Time Altitude Azimuth Distance (km) Brightness Sun altitude
Exits shadow 02:44:12 20° 235° (SW) 1,344 3.6 -12.8°
Maximum altitude 02:46:29 35° 289° (WNW) 926 3.2 -12.5°
Drops below altitude 10° 02:50:19 10° 357° (N) 1,885 5.6 -12.1°
Sets 02:52:40 0° 6° (N) 2,789 6.7 -11.8°
